Time,TemperatureF,DewpointF,PressureIn,WindDirection,WindDirectionDegrees,WindSpeedMPH,WindSpeedGustMPH,Humidity,HourlyPrecipIn,Conditions,Clouds,dailyrainin,SoftwareType,DateUTC
2013-05-19 00:00:00,61.1,54.7,30.03,East,91,0.6,1.3,79,0.00,n/a,n/a,-99.99,Henriksen +1-Wire,2013-05-19 07:00:00,
2013-05-19 00:06:00,60.9,54.7,30.03,East,90,0.6,1.3,79,0.00,n/a,n/a,-99.99,Henriksen +1-Wire,2013-05-19 07:06:00,
2013-05-19 00:12:00,60.8,54.7,30.04,East,91,2.6,3.9,79,0.00,n/a,n/a,-99.99,Henriksen +1-Wire,2013-05-19 07:12:00,
2013-05-19 00:18:00,60.8,54.7,30.03,East,83,0.4,3.9,80,0.00,n/a,n/a,-99.99,Henriksen +1-Wire,2013-05-19 07:18:00,
2013-05-19 00:24:00,60.7,54.7,30.03,East,92,1.1,3.2,80,0.00,n/a,n/a,-99.99,Henriksen +1-Wire,2013-05-19 07:24:00,
2013-05-19 00:30:00,60.7,54.7,30.04,East,90,0.5,2.6,80,0.00,n/a,n/a,-99.99,Henriksen +1-Wire,2013-05-19 07:30:00,
2013-05-19 00:36:00,60.5,54.7,30.04,East,85,0.6,1.3,80,0.00,n/a,n/a,-99.99,Henriksen +1-Wire,2013-05-19 07:36:00,
2013-05-19 00:42:00,60.3,54.5,30.03,East,93,0.6,0.8,80,0.00,n/a,n/a,-99.99,Henriksen +1-Wire,2013-05-19 07:42:00,
2013-05-19 00:48:00,60.1,54.4,30.04,ESE,118,0.6,0.8,81,0.00,n/a,n/a,-99.99,Henriksen +1-Wire,2013-05-19 07:48:00,
2013-05-19 00:54:00,59.9,54.3,30.04,West,263,0.6,0.8,81,0.00,n/a,n/a,-99.99,Henriksen +1-Wire,2013-05-19 07:54:00,
2013-05-19 01:00:00,59.6,54.2,30.04,WSW,258,0.3,0.8,82,0.00,n/a,n/a,-99.99,Henriksen +1-Wire,2013-05-19 08:00:00,
2013-05-19 01:06:00,59.4,54.2,30.04,ENE,69,0.1,1.3,82,0.00,n/a,n/a,-99.99,Henriksen +1-Wire,2013-05-19 08:06:00,
2013-05-19 01:12:00,59.3,54.3,30.04,East,88,0.6,1.3,83,0.00,n/a,n/a,-99.99,Henriksen +1-Wire,2013-05-19 08:12:00,
2013-05-19 01:18:00,59.2,54.4,30.04,NNW,335,0.6,0.8,83,0.00,n/a,n/a,-99.99,Henriksen +1-Wire,2013-05-19 08:18:00,
2013-05-19 01:24:00,59.1,54.2,30.04,East,95,0.6,0.8,83,0.00,n/a,n/a,-99.99,Henriksen +1-Wire,2013-05-19 08:24:00,
2013-05-19 01:30:00,58.9,54.2,30.04,NNE,28,0.6,0.8,84,0.00,n/a,n/a,-99.99,Henriksen +1-Wire,2013-05-19 08:30:00,
2013-05-19 01:36:00,58.6,54.0,30.04,ENE,76,0.6,0.8,84,0.00,n/a,n/a,-99.99,Henriksen +1-Wire,2013-05-19 08:36:00,
2013-05-19 01:42:00,58.4,54.0,30.04,NE,45,0.6,0.8,85,0.00,n/a,n/a,-99.99,Henriksen +1-Wire,2013-05-19 08:42:00,
2013-05-19 01:48:00,58.2,54.1,30.04,North,352,0.6,0.8,86,0.00,n/a,n/a,-99.99,Henriksen +1-Wire,2013-05-19 08:48:00,
2013-05-19 01:54:00,58.0,54.1,30.04,WNW,283,0.6,0.8,86,0.00,n/a,n/a,-99.99,Henriksen +1-Wire,2013-05-19 08:54:00,
2013-05-19 02:00:00,57.8,54.0,30.04,West,275,0.6,0.8,87,0.00,n/a,n/a,-99.99,Henriksen +1-Wire,2013-05-19 09:00:00,
2013-05-19 02:06:00,57.6,54.1,30.04,North,4,0.6,0.8,87,0.00,n/a,n/a,-99.99,Henriksen +1-Wire,2013-05-19 09:06:00,
2013-05-19 02:12:00,57.4,54.0,30.05,East,81,0.6,0.8,88,0.00,n/a,n/a,-99.99,Henriksen +1-Wire,2013-05-19 09:12:00,
2013-05-19 02:18:00,57.2,54.0,30.05,ENE,61,0.0,0.8,88,0.00,n/a,n/a,-99.99,Henriksen +1-Wire,2013-05-19 09:18:00,
2013-05-19 02:24:00,57.0,54.0,30.04,NE,42,0.0,0.0,89,0.00,n/a,n/a,-99.99,Henriksen +1-Wire,2013-05-19 09:24:00,
2013-05-19 02:30:00,56.8,54.0,30.04,NE,36,0.0,0.0,90,0.00,n/a,n/a,-99.99,Henriksen +1-Wire,2013-05-19 09:30:00,
2013-05-19 02:36:00,56.6,53.9,30.04,WNW,294,0.0,0.0,90,0.00,n/a,n/a,-99.99,Henriksen +1-Wire,2013-05-19 09:36:00,
2013-05-19 02:42:00,56.4,53.9,30.04,North,4,0.0,0.0,91,0.00,n/a,n/a,-99.99,Henriksen +1-Wire,2013-05-19 09:42:00,
2013-05-19 02:48:00,56.2,53.8,30.04,NNE,15,0.0,0.0,91,0.00,n/a,n/a,-99.99,Henriksen +1-Wire,2013-05-19 09:48:00,
2013-05-19 02:54:00,56.1,53.7,30.04,West,278,0.0,0.0,91,0.00,n/a,n/a,-99.99,Henriksen +1-Wire,2013-05-19 09:54:00,
2013-05-19 03:00:00,56.0,53.7,30.04,WNW,294,0.0,0.0,92,0.00,n/a,n/a,-99.99,Henriksen +1-Wire,2013-05-19 10:00:00,
2013-05-19 03:06:00,55.9,53.8,30.04,NNW,344,0.0,0.0,92,0.00,n/a,n/a,-99.99,Henriksen +1-Wire,2013-05-19 10:06:00,
2013-05-19 03:12:00,55.8,53.7,30.04,NNW,341,0.2,2.6,92,0.00,n/a,n/a,-99.99,Henriksen +1-Wire,2013-05-19 10:12:00,
2013-05-19 03:18:00,55.7,53.7,30.04,NNW,333,0.6,2.6,92,0.00,n/a,n/a,-99.99,Henriksen +1-Wire,2013-05-19 10:18:00,
2013-05-19 03:24:00,55.8,53.6,30.04,NW,314,0.6,4.5,92,0.00,n/a,n/a,-99.99,Henriksen +1-Wire,2013-05-19 10:24:00,
2013-05-19 03:30:00,56.4,53.9,30.05,NW,320,1.9,5.2,91,0.00,n/a,n/a,-99.99,Henriksen +1-Wire,2013-05-19 10:30:00,
2013-05-19 03:36:00,57.5,54.0,30.05,NNW,331,2.2,5.2,87,0.00,n/a,n/a,-99.99,Henriksen +1-Wire,2013-05-19 10:36:00,
2013-05-19 03:42:00,58.2,53.6,30.05,North,359,2.6,4.5,84,0.00,n/a,n/a,-99.99,Henriksen +1-Wire,2013-05-19 10:42:00,
2013-05-19 03:48:00,59.0,53.0,30.04,North,352,3.0,5.2,80,0.00,n/a,n/a,-99.99,Henriksen +1-Wire,2013-05-19 10:48:00,
2013-05-19 03:54:00,59.6,52.7,30.04,NNW,335,3.6,7.1,77,0.00,n/a,n/a,-99.99,Henriksen +1-Wire,2013-05-19 10:54:00,
2013-05-19 04:00:00,60.1,52.0,30.04,NNW,330,1.6,7.1,74,0.00,n/a,n/a,-99.99,Henriksen +1-Wire,2013-05-19 11:00:00,
2013-05-19 04:06:00,60.7,51.1,30.04,NW,321,3.0,5.8,70,0.00,n/a,n/a,-99.99,Henriksen +1-Wire,2013-05-19 11:06:00,
2013-05-19 04:12:00,61.0,50.3,30.04,NW,322,2.3,7.1,67,0.00,n/a,n/a,-99.99,Henriksen +1-Wire,2013-05-19 11:12:00,
2013-05-19 04:18:00,61.1,49.7,30.04,NW,321,1.3,7.1,65,0.00,n/a,n/a,-99.99,Henriksen +1-Wire,2013-05-19 11:18:00,
2013-05-19 04:24:00,61.0,49.1,30.04,NW,316,0.7,4.1,64,0.00,n/a,n/a,-99.99,Henriksen +1-Wire,2013-05-19 11:24:00,
2013-05-19 04:30:00,60.9,48.7,30.05,NW,316,0.5,3.9,63,0.00,n/a,n/a,-99.99,Henriksen +1-Wire,2013-05-19 11:30:00,
2013-05-19 04:36:00,60.7,48.5,30.05,NW,322,1.2,3.9,63,0.00,n/a,n/a,-99.99,Henriksen +1-Wire,2013-05-19 11:36:00,
2013-05-19 04:42:00,60.4,48.3,30.05,NW,318,3.0,4.5,63,0.00,n/a,n/a,-99.99,Henriksen +1-Wire,2013-05-19 11:42:00,
2013-05-19 04:48:00,60.2,48.0,30.05,NW,322,0.8,4.5,63,0.00,n/a,n/a,-99.99,Henriksen +1-Wire,2013-05-19 11:48:00,
2013-05-19 04:54:00,59.9,47.7,30.05,NW,326,1.2,3.9,63,0.00,n/a,n/a,-99.99,Henriksen +1-Wire,2013-05-19 11:54:00,
2013-05-19 05:00:00,59.7,47.5,30.05,NW,314,1.1,3.2,63,0.00,n/a,n/a,-99.99,Henriksen +1-Wire,2013-05-19 12:00:00,
2013-05-19 05:06:00,59.4,47.1,30.05,WNW,294,1.6,5.2,63,0.00,n/a,n/a,-99.99,Henriksen +1-Wire,2013-05-19 12:06:00,
2013-05-19 05:12:00,59.1,47.0,30.04,NW,319,0.7,5.2,63,0.00,n/a,n/a,-99.99,Henriksen +1-Wire,2013-05-19 12:12:00,
2013-05-19 05:18:00,59.0,46.9,30.05,NW,325,0.6,3.2,63,0.00,n/a,n/a,-99.99,Henriksen +1-Wire,2013-05-19 12:18:00,
2013-05-19 05:24:00,58.7,46.7,30.05,NNW,331,1.1,2.6,63,0.00,n/a,n/a,-99.99,Henriksen +1-Wire,2013-05-19 12:24:00,
2013-05-19 05:30:00,58.5,46.6,30.05,NW,325,1.0,2.6,64,0.00,n/a,n/a,-99.99,Henriksen +1-Wire,2013-05-19 12:30:00,
2013-05-19 05:36:00,58.4,46.6,30.05,NW,317,0.3,2.6,64,0.00,n/a,n/a,-99.99,Henriksen +1-Wire,2013-05-19 12:36:00,
2013-05-19 05:42:00,58.3,46.6,30.05,NW,326,0.8,2.6,64,0.00,n/a,n/a,-99.99,Henriksen +1-Wire,2013-05-19 12:42:00,
2013-05-19 05:48:00,58.2,46.6,30.05,NNW,330,2.2,5.2,65,0.00,n/a,n/a,-99.99,Henriksen +1-Wire,2013-05-19 12:48:00,
2013-05-19 05:54:00,58.1,46.6,30.05,NW,308,0.6,5.2,65,0.00,n/a,n/a,-99.99,Henriksen +1-Wire,2013-05-19 12:54:00,
2013-05-19 06:00:00,58.0,46.5,30.05,NW,313,0.3,0.9,65,0.00,n/a,n/a,-99.99,Henriksen +1-Wire,2013-05-19 13:00:00,
2013-05-19 06:06:00,57.8,46.5,30.06,NW,321,0.6,1.9,65,0.00,n/a,n/a,-99.99,Henriksen +1-Wire,2013-05-19 13:06:00,
2013-05-19 06:12:00,57.6,46.6,30.06,NNW,341,0.4,2.1,66,0.00,n/a,n/a,-99.99,Henriksen +1-Wire,2013-05-19 13:12:00,
2013-05-19 06:18:00,57.4,46.7,30.06,NW,317,0.6,3.2,67,0.00,n/a,n/a,-99.99,Henriksen +1-Wire,2013-05-19 13:18:00,
2013-05-19 06:24:00,57.3,46.9,30.06,WNW,290,0.8,4.5,67,0.00,n/a,n/a,-99.99,Henriksen +1-Wire,2013-05-19 13:24:00,
2013-05-19 06:30:00,57.5,47.3,30.06,NW,309,2.3,4.5,68,0.00,n/a,n/a,-99.99,Henriksen +1-Wire,2013-05-19 13:30:00,
2013-05-19 06:36:00,57.8,47.8,30.06,NW,325,1.7,4.9,68,0.00,n/a,n/a,-99.99,Henriksen +1-Wire,2013-05-19 13:36:00,
2013-05-19 06:42:00,58.3,48.0,30.06,NNW,327,3.5,7.1,68,0.00,n/a,n/a,-99.99,Henriksen +1-Wire,2013-05-19 13:42:00,
2013-05-19 06:48:00,58.8,48.1,30.07,NW,321,4.0,8.4,67,0.00,n/a,n/a,-99.99,Henriksen +1-Wire,2013-05-19 13:48:00,
2013-05-19 06:54:00,59.2,48.1,30.07,NW,319,3.1,8.4,66,0.00,n/a,n/a,-99.99,Henriksen +1-Wire,2013-05-19 13:54:00,
2013-05-19 07:00:00,59.6,48.2,30.07,NW,322,3.6,7.8,65,0.00,n/a,n/a,-99.99,Henriksen +1-Wire,2013-05-19 14:00:00,
2013-05-19 07:06:00,59.9,48.0,30.07,NNW,327,5.0,8.4,64,0.00,n/a,n/a,-99.99,Henriksen +1-Wire,2013-05-19 14:06:00,
2013-05-19 07:12:00,60.2,48.0,30.07,NNW,328,4.0,8.4,63,0.00,n/a,n/a,-99.99,Henriksen +1-Wire,2013-05-19 14:12:00,
2013-05-19 07:18:00,60.5,47.9,30.07,NW,319,3.8,7.8,62,0.00,n/a,n/a,-99.99,Henriksen +1-Wire,2013-05-19 14:18:00,
2013-05-19 07:24:00,60.7,47.8,30.07,NW,325,3.5,10.3,61,0.00,n/a,n/a,-99.99,Henriksen +1-Wire,2013-05-19 14:24:00,
2013-05-19 07:30:00,61.0,47.7,30.07,NW,321,2.9,8.4,61,0.00,n/a,n/a,-99.99,Henriksen +1-Wire,2013-05-19 14:30:00,
2013-05-19 07:36:00,61.2,47.8,30.07,NW,318,4.2,9.7,61,0.00,n/a,n/a,-99.99,Henriksen +1-Wire,2013-05-19 14:36:00,
2013-05-19 07:42:00,61.4,47.9,30.07,NW,321,3.4,9.7,60,0.00,n/a,n/a,-99.99,Henriksen +1-Wire,2013-05-19 14:42:00,
2013-05-19 07:48:00,61.7,48.1,30.07,NNW,327,3.8,12.9,60,0.00,n/a,n/a,-99.99,Henriksen +1-Wire,2013-05-19 14:48:00,
2013-05-19 07:54:00,62.0,48.0,30.07,NNW,330,5.8,11.7,59,0.00,n/a,n/a,-99.99,Henriksen +1-Wire,2013-05-19 14:54:00,
2013-05-19 08:00:00,62.4,48.1,30.07,NW,321,3.6,11.0,59,0.00,n/a,n/a,-99.99,Henriksen +1-Wire,2013-05-19 15:00:00,
2013-05-19 08:06:00,62.8,48.2,30.07,NW,324,2.8,7.8,58,0.00,n/a,n/a,-99.99,Henriksen +1-Wire,2013-05-19 15:06:00,
2013-05-19 08:12:00,63.4,48.3,30.07,NW,321,4.9,11.6,57,0.00,n/a,n/a,-99.99,Henriksen +1-Wire,2013-05-19 15:12:00,
2013-05-19 08:18:00,64.1,48.4,30.07,NW,321,5.8,11.6,56,0.00,n/a,n/a,-99.99,Henriksen +1-Wire,2013-05-19 15:18:00,
2013-05-19 08:24:00,64.9,48.4,30.07,NW,322,6.0,13.5,54,0.00,n/a,n/a,-99.99,Henriksen +1-Wire,2013-05-19 15:24:00,
2013-05-19 08:30:00,65.6,48.3,30.07,NW,322,4.8,13.5,53,0.00,n/a,n/a,-99.99,Henriksen +1-Wire,2013-05-19 15:30:00,
2013-05-19 08:36:00,66.3,48.2,30.07,NNW,327,4.4,10.5,51,0.00,n/a,n/a,-99.99,Henriksen +1-Wire,2013-05-19 15:36:00,
2013-05-19 08:42:00,67.0,48.3,30.07,NW,310,5.5,10.5,50,0.00,n/a,n/a,-99.99,Henriksen +1-Wire,2013-05-19 15:42:00,
2013-05-19 08:48:00,67.4,48.2,30.07,NW,308,4.7,10.4,49,0.00,n/a,n/a,-99.99,Henriksen +1-Wire,2013-05-19 15:48:00,
2013-05-19 08:54:00,67.6,48.0,30.07,NW,314,5.7,14.8,48,0.00,n/a,n/a,-99.99,Henriksen +1-Wire,2013-05-19 15:54:00,
2013-05-19 09:00:00,68.1,48.1,30.07,NW,312,6.3,14.8,48,0.00,n/a,n/a,-99.99,Henriksen +1-Wire,2013-05-19 16:00:00,
2013-05-19 09:06:00,68.5,48.2,30.07,NW,315,5.4,12.7,47,0.00,n/a,n/a,-99.99,Henriksen +1-Wire,2013-05-19 16:06:00,
2013-05-19 09:12:00,68.8,48.2,30.07,NW,323,6.0,12.3,47,0.00,n/a,n/a,-99.99,Henriksen +1-Wire,2013-05-19 16:12:00,
2013-05-19 09:18:00,69.2,48.4,30.06,NW,320,5.7,11.0,47,0.00,n/a,n/a,-99.99,Henriksen +1-Wire,2013-05-19 16:18:00,
2013-05-19 09:24:00,69.4,48.5,30.07,NW,323,5.9,11.0,46,0.00,n/a,n/a,-99.99,Henriksen +1-Wire,2013-05-19 16:24:00,
2013-05-19 09:30:00,69.7,48.7,30.07,NW,322,5.1,10.8,46,0.00,n/a,n/a,-99.99,Henriksen +1-Wire,2013-05-19 16:30:00,
2013-05-19 09:36:00,70.1,48.9,30.07,NW,313,7.4,16.9,46,0.00,n/a,n/a,-99.99,Henriksen +1-Wire,2013-05-19 16:36:00,
2013-05-19 09:42:00,70.2,48.8,30.07,NW,312,5.0,16.9,46,0.00,n/a,n/a,-99.99,Henriksen +1-Wire,2013-05-19 16:42:00,
2013-05-19 09:48:00,70.5,48.9,30.06,NW,306,6.8,11.8,45,0.00,n/a,n/a,-99.99,Henriksen +1-Wire,2013-05-19 16:48:00,
2013-05-19 09:54:00,70.7,49.1,30.06,NW,307,5.0,11.7,45,0.00,n/a,n/a,-99.99,Henriksen +1-Wire,2013-05-19 16:54:00,
2013-05-19 10:00:00,71.1,49.3,30.06,NW,312,5.6,13.6,45,0.00,n/a,n/a,-99.99,Henriksen +1-Wire,2013-05-19 17:00:00,
2013-05-19 10:06:00,71.3,49.3,30.06,NW,312,5.1,14.1,45,0.00,n/a,n/a,-99.99,Henriksen +1-Wire,2013-05-19 17:06:00,
2013-05-19 10:12:00,71.8,49.5,30.06,NW,315,5.0,15.7,44,0.00,n/a,n/a,-99.99,Henriksen +1-Wire,2013-05-19 17:12:00,
2013-05-19 10:18:00,72.3,49.8,30.06,NW,317,5.1,12.3,44,0.00,n/a,n/a,-99.99,Henriksen +1-Wire,2013-05-19 17:18:00,
2013-05-19 10:24:00,72.7,49.9,30.06,NW,304,6.0,11.7,44,0.00,n/a,n/a,-99.99,Henriksen +1-Wire,2013-05-19 17:24:00,
2013-05-19 10:30:00,72.8,49.8,30.06,WNW,302,7.0,13.0,43,0.00,n/a,n/a,-99.99,Henriksen +1-Wire,2013-05-19 17:30:00,
2013-05-19 10:36:00,73.0,49.9,30.06,NW,306,4.8,11.7,43,0.00,n/a,n/a,-99.99,Henriksen +1-Wire,2013-05-19 17:36:00,
2013-05-19 10:42:00,73.3,50.3,30.05,WNW,290,4.9,14.3,43,0.00,n/a,n/a,-99.99,Henriksen +1-Wire,2013-05-19 17:42:00,
2013-05-19 10:48:00,73.5,50.5,30.05,WNW,289,6.1,11.7,43,0.00,n/a,n/a,-99.99,Henriksen +1-Wire,2013-05-19 17:48:00,
2013-05-19 10:54:00,73.6,50.5,30.05,NW,325,6.6,13.1,43,0.00,n/a,n/a,-99.99,Henriksen +1-Wire,2013-05-19 17:54:00,
2013-05-19 11:00:00,73.9,50.6,30.05,NW,313,7.2,13.6,43,0.00,n/a,n/a,-99.99,Henriksen +1-Wire,2013-05-19 18:00:00,
2013-05-19 11:06:00,74.4,50.9,30.05,NW,305,8.0,13.6,43,0.00,n/a,n/a,-99.99,Henriksen +1-Wire,2013-05-19 18:06:00,
2013-05-19 11:12:00,74.8,50.9,30.05,WNW,294,7.0,12.3,42,0.00,n/a,n/a,-99.99,Henriksen +1-Wire,2013-05-19 18:12:00,
2013-05-19 11:18:00,75.0,50.9,30.04,NW,307,6.8,13.0,42,0.00,n/a,n/a,-99.99,Henriksen +1-Wire,2013-05-19 18:18:00,
2013-05-19 11:24:00,75.4,50.9,30.05,WNW,290,6.3,18.2,41,0.00,n/a,n/a,-99.99,Henriksen +1-Wire,2013-05-19 18:24:00,
2013-05-19 11:30:00,75.7,50.9,30.05,NW,305,4.3,18.2,41,0.00,n/a,n/a,-99.99,Henriksen +1-Wire,2013-05-19 18:30:00,
2013-05-19 11:36:00,76.1,50.9,30.04,NW,307,6.2,15.6,40,0.00,n/a,n/a,-99.99,Henriksen +1-Wire,2013-05-19 18:36:00,
2013-05-19 11:42:00,76.5,51.1,30.04,NW,319,6.2,15.6,40,0.00,n/a,n/a,-99.99,Henriksen +1-Wire,2013-05-19 18:42:00,
2013-05-19 11:48:00,76.9,51.3,30.05,NW,319,8.3,14.9,40,0.00,n/a,n/a,-99.99,Henriksen +1-Wire,2013-05-19 18:48:00,
2013-05-19 11:54:00,76.7,50.9,30.04,NW,320,5.8,15.1,40,0.00,n/a,n/a,-99.99,Henriksen +1-Wire,2013-05-19 18:54:00,
2013-05-19 12:00:00,76.8,50.9,30.04,NW,318,4.8,15.1,39,0.00,n/a,n/a,-99.99,Henriksen +1-Wire,2013-05-19 19:00:00,
2013-05-19 12:06:00,77.3,51.4,30.04,NW,311,6.2,11.0,39,0.00,n/a,n/a,-99.99,Henriksen +1-Wire,2013-05-19 19:06:00,
2013-05-19 12:12:00,77.4,51.2,30.04,NW,322,7.4,14.3,39,0.00,n/a,n/a,-99.99,Henriksen +1-Wire,2013-05-19 19:12:00,
2013-05-19 12:18:00,77.7,51.0,30.03,NW,318,6.3,14.3,38,0.00,n/a,n/a,-99.99,Henriksen +1-Wire,2013-05-19 19:18:00,
2013-05-19 12:24:00,78.2,51.0,30.03,NW,315,5.4,14.8,38,0.00,n/a,n/a,-99.99,Henriksen +1-Wire,2013-05-19 19:24:00,
2013-05-19 12:30:00,78.6,50.9,30.03,NW,306,7.8,14.8,37,0.00,n/a,n/a,-99.99,Henriksen +1-Wire,2013-05-19 19:30:00,
2013-05-19 12:36:00,78.7,50.6,30.02,NW,306,5.1,13.0,36,0.00,n/a,n/a,-99.99,Henriksen +1-Wire,2013-05-19 19:36:00,
2013-05-19 12:42:00,78.8,50.4,30.03,NW,307,6.7,13.1,36,0.00,n/a,n/a,-99.99,Henriksen +1-Wire,2013-05-19 19:42:00,
2013-05-19 12:48:00,79.0,50.0,30.02,WNW,296,6.2,13.1,35,0.00,n/a,n/a,-99.99,Henriksen +1-Wire,2013-05-19 19:48:00,
2013-05-19 12:54:00,79.3,49.9,30.02,NW,311,5.9,13.0,35,0.00,n/a,n/a,-99.99,Henriksen +1-Wire,2013-05-19 19:54:00,
2013-05-19 13:00:00,79.4,49.5,30.02,NW,320,7.1,14.3,34,0.00,n/a,n/a,-99.99,Henriksen +1-Wire,2013-05-19 20:00:00,
2013-05-19 13:06:00,79.6,49.5,30.02,NW,308,5.2,14.9,34,0.00,n/a,n/a,-99.99,Henriksen +1-Wire,2013-05-19 20:06:00,
2013-05-19 13:12:00,80.1,50.0,30.01,NW,325,6.0,14.9,34,0.00,n/a,n/a,-99.99,Henriksen +1-Wire,2013-05-19 20:12:00,
2013-05-19 13:18:00,80.5,50.3,30.01,NW,306,6.9,13.6,34,0.00,n/a,n/a,-99.99,Henriksen +1-Wire,2013-05-19 20:18:00,
2013-05-19 13:24:00,80.8,50.5,30.01,WNW,291,6.4,12.3,34,0.00,n/a,n/a,-99.99,Henriksen +1-Wire,2013-05-19 20:24:00,
2013-05-19 13:30:00,81.0,50.1,30.00,NW,305,5.3,12.7,33,0.00,n/a,n/a,-99.99,Henriksen +1-Wire,2013-05-19 20:30:00,
2013-05-19 13:36:00,81.1,49.8,30.00,WNW,294,6.0,12.3,33,0.00,n/a,n/a,-99.99,Henriksen +1-Wire,2013-05-19 20:36:00,
2013-05-19 13:42:00,81.2,49.5,30.00,NNW,327,6.8,14.9,32,0.00,n/a,n/a,-99.99,Henriksen +1-Wire,2013-05-19 20:42:00,
2013-05-19 13:48:00,81.3,49.1,30.00,NW,317,6.4,14.9,32,0.00,n/a,n/a,-99.99,Henriksen +1-Wire,2013-05-19 20:48:00,
2013-05-19 13:54:00,81.4,48.4,30.00,NW,314,6.4,13.6,31,0.00,n/a,n/a,-99.99,Henriksen +1-Wire,2013-05-19 20:54:00,
2013-05-19 14:00:00,81.7,47.5,30.00,NW,304,6.7,13.6,29,0.00,n/a,n/a,-99.99,Henriksen +1-Wire,2013-05-19 21:00:00,
2013-05-19 14:06:00,81.9,47.2,30.00,WNW,301,4.5,16.2,29,0.00,n/a,n/a,-99.99,Henriksen +1-Wire,2013-05-19 21:06:00,
2013-05-19 14:12:00,81.9,46.6,30.00,WNW,303,7.1,14.3,28,0.00,n/a,n/a,-99.99,Henriksen +1-Wire,2013-05-19 21:12:00,
2013-05-19 14:18:00,81.7,45.6,30.00,NW,316,6.4,13.0,27,0.00,n/a,n/a,-99.99,Henriksen +1-Wire,2013-05-19 21:18:00,
2013-05-19 14:24:00,81.8,45.3,30.00,NW,313,7.5,15.6,27,0.00,n/a,n/a,-99.99,Henriksen +1-Wire,2013-05-19 21:24:00,
2013-05-19 14:30:00,82.1,45.0,30.00,NW,311,7.9,16.2,26,0.00,n/a,n/a,-99.99,Henriksen +1-Wire,2013-05-19 21:30:00,
2013-05-19 14:36:00,82.5,44.9,30.00,NW,314,6.0,16.2,26,0.00,n/a,n/a,-99.99,Henriksen +1-Wire,2013-05-19 21:36:00,
2013-05-19 14:42:00,82.7,45.4,30.00,WNW,287,6.0,10.9,26,0.00,n/a,n/a,-99.99,Henriksen +1-Wire,2013-05-19 21:42:00,
2013-05-19 14:48:00,82.8,46.0,29.99,NW,310,7.3,13.6,27,0.00,n/a,n/a,-99.99,Henriksen +1-Wire,2013-05-19 21:48:00,
2013-05-19 14:54:00,82.9,46.4,29.99,NW,316,4.9,13.6,27,0.00,n/a,n/a,-99.99,Henriksen +1-Wire,2013-05-19 21:54:00,
2013-05-19 15:00:00,83.2,47.0,29.99,NW,312,5.8,9.7,27,0.00,n/a,n/a,-99.99,Henriksen +1-Wire,2013-05-19 22:00:00,
2013-05-19 15:06:00,83.3,47.3,29.99,WNW,292,5.9,11.7,27,0.00,n/a,n/a,-99.99,Henriksen +1-Wire,2013-05-19 22:06:00,
2013-05-19 15:12:00,83.3,47.2,29.99,NW,318,5.4,13.0,27,0.00,n/a,n/a,-99.99,Henriksen +1-Wire,2013-05-19 22:12:00,
2013-05-19 15:18:00,83.4,46.9,29.99,NW,311,7.0,13.0,27,0.00,n/a,n/a,-99.99,Henriksen +1-Wire,2013-05-19 22:18:00,
2013-05-19 15:24:00,83.7,47.1,29.98,West,281,5.4,12.3,27,0.00,n/a,n/a,-99.99,Henriksen +1-Wire,2013-05-19 22:24:00,
2013-05-19 15:30:00,84.0,47.2,29.99,WNW,302,7.0,12.3,27,0.00,n/a,n/a,-99.99,Henriksen +1-Wire,2013-05-19 22:30:00,
2013-05-19 15:36:00,83.9,46.7,29.99,West,281,7.5,18.2,26,0.00,n/a,n/a,-99.99,Henriksen +1-Wire,2013-05-19 22:36:00,
2013-05-19 15:42:00,84.0,46.3,29.98,WNW,292,7.2,18.2,26,0.00,n/a,n/a,-99.99,Henriksen +1-Wire,2013-05-19 22:42:00,
2013-05-19 15:48:00,83.9,46.3,29.98,WNW,289,7.2,13.5,26,0.00,n/a,n/a,-99.99,Henriksen +1-Wire,2013-05-19 22:48:00,
2013-05-19 15:54:00,84.0,46.7,29.98,NW,306,4.9,16.2,26,0.00,n/a,n/a,-99.99,Henriksen +1-Wire,2013-05-19 22:54:00,
2013-05-19 16:00:00,84.0,46.8,29.97,NW,312,6.0,13.6,26,0.00,n/a,n/a,-99.99,Henriksen +1-Wire,2013-05-19 23:00:00,
2013-05-19 16:06:00,84.0,46.9,29.98,WNW,292,7.5,13.6,26,0.00,n/a,n/a,-99.99,Henriksen +1-Wire,2013-05-19 23:06:00,
2013-05-19 16:12:00,84.1,46.9,29.98,West,278,8.0,13.6,26,0.00,n/a,n/a,-99.99,Henriksen +1-Wire,2013-05-19 23:12:00,
2013-05-19 16:18:00,84.2,46.7,29.97,WNW,289,6.8,14.2,26,0.00,n/a,n/a,-99.99,Henriksen +1-Wire,2013-05-19 23:18:00,
2013-05-19 16:24:00,84.2,46.7,29.96,NW,312,6.3,14.2,26,0.00,n/a,n/a,-99.99,Henriksen +1-Wire,2013-05-19 23:24:00,
2013-05-19 16:30:00,84.1,46.7,29.97,NW,318,7.0,12.3,26,0.00,n/a,n/a,-99.99,Henriksen +1-Wire,2013-05-19 23:30:00,
2013-05-19 16:36:00,84.2,47.1,29.96,NW,313,5.3,12.3,26,0.00,n/a,n/a,-99.99,Henriksen +1-Wire,2013-05-19 23:36:00,
2013-05-19 16:42:00,84.3,47.3,29.96,NW,315,6.0,13.0,27,0.00,n/a,n/a,-99.99,Henriksen +1-Wire,2013-05-19 23:42:00,
2013-05-19 16:48:00,84.2,47.0,29.96,NW,310,6.7,13.0,26,0.00,n/a,n/a,-99.99,Henriksen +1-Wire,2013-05-19 23:48:00,
2013-05-19 16:54:00,84.2,46.9,29.95,WNW,291,4.9,16.2,26,0.00,n/a,n/a,-99.99,Henriksen +1-Wire,2013-05-19 23:54:00,
2013-05-19 17:00:00,84.2,47.1,29.95,NW,315,7.3,16.2,26,0.00,n/a,n/a,-99.99,Henriksen +1-Wire,2013-05-20 00:00:00,
2013-05-19 17:06:00,84.3,47.3,29.95,NW,318,3.7,12.3,27,0.00,n/a,n/a,-99.99,Henriksen +1-Wire,2013-05-20 00:06:00,
2013-05-19 17:12:00,84.5,47.5,29.95,WNW,287,6.3,10.5,27,0.00,n/a,n/a,-99.99,Henriksen +1-Wire,2013-05-20 00:12:00,
2013-05-19 17:18:00,84.4,47.6,29.95,WNW,301,5.4,12.3,27,0.00,n/a,n/a,-99.99,Henriksen +1-Wire,2013-05-20 00:18:00,
2013-05-19 17:24:00,84.4,47.8,29.95,WNW,288,6.3,14.3,27,0.00,n/a,n/a,-99.99,Henriksen +1-Wire,2013-05-20 00:24:00,
2013-05-19 17:30:00,84.5,47.8,29.95,WNW,287,4.9,14.3,27,0.00,n/a,n/a,-99.99,Henriksen +1-Wire,2013-05-20 00:30:00,
2013-05-19 17:36:00,84.6,47.8,29.95,WNW,287,6.7,10.5,27,0.00,n/a,n/a,-99.99,Henriksen +1-Wire,2013-05-20 00:36:00,
2013-05-19 17:42:00,84.7,47.7,29.95,WNW,290,5.9,11.0,27,0.00,n/a,n/a,-99.99,Henriksen +1-Wire,2013-05-20 00:42:00,
2013-05-19 17:48:00,84.6,47.4,29.95,NW,307,4.4,8.4,26,0.00,n/a,n/a,-99.99,Henriksen +1-Wire,2013-05-20 00:48:00,
2013-05-19 17:54:00,84.4,47.4,29.95,WNW,292,5.7,10.4,27,0.00,n/a,n/a,-99.99,Henriksen +1-Wire,2013-05-20 00:54:00,
2013-05-19 18:00:00,84.4,47.4,29.94,WNW,294,3.2,10.4,27,0.00,n/a,n/a,-99.99,Henriksen +1-Wire,2013-05-20 01:00:00,
2013-05-19 18:06:00,84.3,47.5,29.94,WNW,287,6.2,12.3,27,0.00,n/a,n/a,-99.99,Henriksen +1-Wire,2013-05-20 01:06:00,
2013-05-19 18:12:00,84.2,47.6,29.94,NW,310,5.8,13.0,27,0.00,n/a,n/a,-99.99,Henriksen +1-Wire,2013-05-20 01:12:00,
2013-05-19 18:18:00,84.1,47.8,29.94,NW,306,5.9,13.0,27,0.00,n/a,n/a,-99.99,Henriksen +1-Wire,2013-05-20 01:18:00,
2013-05-19 18:24:00,84.0,48.0,29.93,WNW,292,6.8,13.0,28,0.00,n/a,n/a,-99.99,Henriksen +1-Wire,2013-05-20 01:24:00,
2013-05-19 18:30:00,83.8,48.0,29.93,WNW,303,4.1,12.2,28,0.00,n/a,n/a,-99.99,Henriksen +1-Wire,2013-05-20 01:30:00,
2013-05-19 18:36:00,83.8,48.1,29.93,NW,310,3.6,10.5,28,0.00,n/a,n/a,-99.99,Henriksen +1-Wire,2013-05-20 01:36:00,
2013-05-19 18:42:00,83.7,48.1,29.93,NW,320,3.7,9.7,28,0.00,n/a,n/a,-99.99,Henriksen +1-Wire,2013-05-20 01:42:00,
2013-05-19 18:48:00,83.6,48.0,29.93,NW,309,4.9,10.9,28,0.00,n/a,n/a,-99.99,Henriksen +1-Wire,2013-05-20 01:48:00,
2013-05-19 18:54:00,83.5,48.0,29.93,NW,305,5.1,10.4,28,0.00,n/a,n/a,-99.99,Henriksen +1-Wire,2013-05-20 01:54:00,
2013-05-19 19:00:00,83.2,48.0,29.92,WNW,292,4.9,11.0,28,0.00,n/a,n/a,-99.99,Henriksen +1-Wire,2013-05-20 02:00:00,
2013-05-19 19:06:00,83.0,48.2,29.93,WNW,299,4.1,11.0,29,0.00,n/a,n/a,-99.99,Henriksen +1-Wire,2013-05-20 02:06:00,
2013-05-19 19:12:00,82.7,48.3,29.93,WNW,295,4.6,9.1,29,0.00,n/a,n/a,-99.99,Henriksen +1-Wire,2013-05-20 02:12:00,
2013-05-19 19:18:00,82.3,48.3,29.93,WNW,299,4.3,9.1,30,0.00,n/a,n/a,-99.99,Henriksen +1-Wire,2013-05-20 02:18:00,
2013-05-19 19:24:00,81.7,48.3,29.93,NW,308,2.1,8.5,30,0.00,n/a,n/a,-99.99,Henriksen +1-Wire,2013-05-20 02:24:00,
2013-05-19 19:30:00,81.3,48.5,29.93,NW,307,3.0,7.1,31,0.00,n/a,n/a,-99.99,Henriksen +1-Wire,2013-05-20 02:30:00,
2013-05-19 19:36:00,80.8,49.1,29.93,NW,308,3.0,7.1,32,0.00,n/a,n/a,-99.99,Henriksen +1-Wire,2013-05-20 02:36:00,
2013-05-19 19:42:00,80.4,49.4,29.93,NW,310,1.7,6.5,33,0.00,n/a,n/a,-99.99,Henriksen +1-Wire,2013-05-20 02:42:00,
2013-05-19 19:48:00,80.1,49.5,29.93,NW,320,2.5,5.8,33,0.00,n/a,n/a,-99.99,Henriksen +1-Wire,2013-05-20 02:48:00,
2013-05-19 19:54:00,79.7,49.2,29.94,NW,314,2.9,5.8,33,0.00,n/a,n/a,-99.99,Henriksen +1-Wire,2013-05-20 02:54:00,
2013-05-19 20:00:00,79.4,48.8,29.93,NW,318,1.0,5.9,33,0.00,n/a,n/a,-99.99,Henriksen +1-Wire,2013-05-20 03:00:00,
2013-05-19 20:06:00,79.0,48.4,29.93,WNW,302,1.4,4.5,33,0.00,n/a,n/a,-99.99,Henriksen +1-Wire,2013-05-20 03:06:00,
2013-05-19 20:12:00,78.4,48.2,29.93,NW,312,0.8,4.5,34,0.00,n/a,n/a,-99.99,Henriksen +1-Wire,2013-05-20 03:12:00,
2013-05-19 20:18:00,77.8,48.4,29.93,WNW,303,1.2,3.2,34,0.00,n/a,n/a,-99.99,Henriksen +1-Wire,2013-05-20 03:18:00,
2013-05-19 20:24:00,77.4,48.4,29.93,NW,307,0.8,3.2,35,0.00,n/a,n/a,-99.99,Henriksen +1-Wire,2013-05-20 03:24:00,
2013-05-19 20:30:00,76.7,48.4,29.94,NW,307,0.6,3.2,36,0.00,n/a,n/a,-99.99,Henriksen +1-Wire,2013-05-20 03:30:00,
2013-05-19 20:36:00,76.1,48.9,29.93,NW,317,0.6,1.9,37,0.00,n/a,n/a,-99.99,Henriksen +1-Wire,2013-05-20 03:36:00,
2013-05-19 20:42:00,75.6,49.4,29.93,WNW,296,0.7,3.8,39,0.00,n/a,n/a,-99.99,Henriksen +1-Wire,2013-05-20 03:42:00,
2013-05-19 20:48:00,74.9,49.5,29.93,WNW,295,0.9,3.8,40,0.00,n/a,n/a,-99.99,Henriksen +1-Wire,2013-05-20 03:48:00,
2013-05-19 20:54:00,74.5,49.7,29.93,WNW,303,1.5,3.9,41,0.00,n/a,n/a,-99.99,Henriksen +1-Wire,2013-05-20 03:54:00,
2013-05-19 21:00:00,74.3,50.2,29.94,WNW,301,1.6,3.9,42,0.00,n/a,n/a,-99.99,Henriksen +1-Wire,2013-05-20 04:00:00,
2013-05-19 21:06:00,74.2,50.7,29.93,WNW,288,2.2,4.5,43,0.00,n/a,n/a,-99.99,Henriksen +1-Wire,2013-05-20 04:06:00,
2013-05-19 21:12:00,74.2,50.9,29.93,WNW,286,1.4,4.5,43,0.00,n/a,n/a,-99.99,Henriksen +1-Wire,2013-05-20 04:12:00,
2013-05-19 21:18:00,74.2,51.1,29.94,WNW,283,1.1,3.9,43,0.00,n/a,n/a,-99.99,Henriksen +1-Wire,2013-05-20 04:18:00,
2013-05-19 21:24:00,74.4,51.1,29.93,WNW,287,1.2,3.7,43,0.00,n/a,n/a,-99.99,Henriksen +1-Wire,2013-05-20 04:24:00,
2013-05-19 21:30:00,74.3,50.7,29.93,WNW,290,1.6,4.5,43,0.00,n/a,n/a,-99.99,Henriksen +1-Wire,2013-05-20 04:30:00,
2013-05-19 21:36:00,74.1,50.2,29.94,WNW,288,1.8,5.2,42,0.00,n/a,n/a,-99.99,Henriksen +1-Wire,2013-05-20 04:36:00,
2013-05-19 21:42:00,74.0,49.8,29.93,WNW,283,1.6,5.2,42,0.00,n/a,n/a,-99.99,Henriksen +1-Wire,2013-05-20 04:42:00,
2013-05-19 21:48:00,73.9,49.3,29.94,WNW,282,1.4,5.8,41,0.00,n/a,n/a,-99.99,Henriksen +1-Wire,2013-05-20 04:48:00,
2013-05-19 21:54:00,73.7,48.6,29.94,WNW,298,1.7,6.5,40,0.00,n/a,n/a,-99.99,Henriksen +1-Wire,2013-05-20 04:54:00,
2013-05-19 22:00:00,73.5,48.2,29.94,NW,304,1.0,4.5,40,0.00,n/a,n/a,-99.99,Henriksen +1-Wire,2013-05-20 05:00:00,
2013-05-19 22:06:00,73.1,47.8,29.94,NW,320,0.6,3.2,40,0.00,n/a,n/a,-99.99,Henriksen +1-Wire,2013-05-20 05:06:00,
2013-05-19 22:12:00,72.8,47.4,29.95,WNW,294,0.6,1.9,40,0.00,n/a,n/a,-99.99,Henriksen +1-Wire,2013-05-20 05:12:00,
2013-05-19 22:18:00,72.4,47.2,29.95,WNW,293,1.1,3.9,40,0.00,n/a,n/a,-99.99,Henriksen +1-Wire,2013-05-20 05:18:00,
2013-05-19 22:24:00,72.1,47.3,29.95,WNW,291,1.9,5.2,40,0.00,n/a,n/a,-99.99,Henriksen +1-Wire,2013-05-20 05:24:00,
2013-05-19 22:30:00,71.8,47.3,29.95,WNW,290,0.6,3.9,41,0.00,n/a,n/a,-99.99,Henriksen +1-Wire,2013-05-20 05:30:00,
2013-05-19 22:36:00,71.4,47.3,29.94,West,279,1.5,4.5,41,0.00,n/a,n/a,-99.99,Henriksen +1-Wire,2013-05-20 05:36:00,
2013-05-19 22:42:00,71.2,47.7,29.94,West,276,2.6,5.2,42,0.00,n/a,n/a,-99.99,Henriksen +1-Wire,2013-05-20 05:42:00,
2013-05-19 22:48:00,71.0,48.1,29.94,West,279,1.9,5.2,43,0.00,n/a,n/a,-99.99,Henriksen +1-Wire,2013-05-20 05:48:00,
2013-05-19 22:54:00,70.9,48.7,29.94,West,279,1.6,7.8,44,0.00,n/a,n/a,-99.99,Henriksen +1-Wire,2013-05-20 05:54:00,
2013-05-19 23:00:00,70.6,49.2,29.94,WNW,287,2.0,7.8,46,0.00,n/a,n/a,-99.99,Henriksen +1-Wire,2013-05-20 06:00:00,
2013-05-19 23:06:00,70.3,49.6,29.95,NW,307,3.1,7.8,47,0.00,n/a,n/a,-99.99,Henriksen +1-Wire,2013-05-20 06:06:00,
2013-05-19 23:12:00,70.0,50.0,29.94,NW,312,1.8,7.8,48,0.00,n/a,n/a,-99.99,Henriksen +1-Wire,2013-05-20 06:12:00,
2013-05-19 23:18:00,69.8,50.4,29.94,NW,316,0.9,5.8,49,0.00,n/a,n/a,-99.99,Henriksen +1-Wire,2013-05-20 06:18:00,
2013-05-19 23:24:00,69.8,50.7,29.94,NW,313,1.7,5.8,50,0.00,n/a,n/a,-99.99,Henriksen +1-Wire,2013-05-20 06:24:00,
2013-05-19 23:30:00,69.6,50.9,29.94,NW,314,1.6,5.8,50,0.00,n/a,n/a,-99.99,Henriksen +1-Wire,2013-05-20 06:30:00,
2013-05-19 23:36:00,69.4,50.8,29.94,NW,312,1.7,5.8,51,0.00,n/a,n/a,-99.99,Henriksen +1-Wire,2013-05-20 06:36:00,
2013-05-19 23:42:00,69.1,50.8,29.94,NW,326,2.9,5.8,51,0.00,n/a,n/a,-99.99,Henriksen +1-Wire,2013-05-20 06:42:00,
2013-05-19 23:48:00,68.9,51.0,29.93,NNW,330,2.5,5.8,52,0.00,n/a,n/a,-99.99,Henriksen +1-Wire,2013-05-20 06:48:00,
2013-05-19 23:54:00,68.7,51.2,29.93,NNW,333,1.4,5.2,53,0.00,n/a,n/a,-99.99,Henriksen +1-Wire,2013-05-20 06:54:00,